Location: Baili�vre
(50.0696°N, 4.2409°E)
Time: 05:44:56
(UTC+00:00)

USA 234 - Pass Details

Date: 08 August 2020
Orbit: 1101 x 1107 km, 123.0° (Epoch: 22 September)

Event Time Altitude Azimuth Distance (km) Brightness Sun altitude
Exits shadow 22:06:04 27° 188° (S) 1,961 4.1 -20.4°
Maximum altitude 22:08:33 36° 228° (SW) 1,673 4.1 -20.5°
Drops below altitude 10° 22:14:29 10° 293° (WNW) 2,965 6.2 -20.9°
Sets 22:17:14 0° 302° (WNW) 3,927 7.1 -21.1°
